Stations météo

réclame
Mon MeteoGroup
Lulea/Kallax, Suède (2186): Température de l'air & dewpoint: 08.07.2020 23:00:00 - 14.07.2020 23:00:00 (CEST)Lulea/Kallax, Suède (2186): Vitesse du vent & gusts: 08.07.2020 23:00:00 - 14.07.2020 23:00:00 (CEST)Lulea/Kallax, Suède (2186): Direction du vent: 08.07.2020 23:00:00 - 14.07.2020 23:00:00 (CEST)Lulea/Kallax, Suède (2186): reduced air pressure: 08.07.2020 23:00:00 - 14.07.2020 23:00:00 (CEST)Lulea/Kallax, Suède (2186): visibility: 08.07.2020 23:00:00 - 14.07.2020 23:00:00 (CEST)Lulea/Kallax, Suède (2186): Quantités de précipitations: 08.07.2020 23:00:00 - 14.07.2020 23:00:00 (CEST)
Date & Time tt [°C] td [°C] ff [km/h] ff [knt] fx [km/h] fx [knt] dd ppp [hPa] vv [km] rr [mm]
14.07.2020 23:00:00 13,0 11,0 2 1 - - - - 10 -
14.07.2020 22:00:00 14,6 11,0 5 3 7 4 SSW 1013,9 10 0,0
14.07.2020 21:00:00 15,4 11,2 4 2 18 10 SSW 1013,5 10 0,0
14.07.2020 20:00:00 16,1 11,3 11 6 18 10 SSW 1013,1 10 0,0
14.07.2020 19:00:00 16,9 11,4 13 7 22 12 S 1012,9 10 0,0
14.07.2020 18:00:00 16,9 10,5 11 6 22 12 S 1013,0 10 0,0
14.07.2020 17:00:00 16,8 10,9 8 4 11 6 SE 1012,7 10 0,0
14.07.2020 16:00:00 17,5 11,3 8 4 14 8 ESE 1012,6 10 0,0
14.07.2020 15:00:00 18,0 12,0 4 2 11 6 - 1012,6 10 0,0
14.07.2020 14:00:00 15,3 11,5 2 1 14 8 - 1012,6 10 0,2
14.07.2020 13:00:00 14,8 10,0 8 4 18 10 - 1012,5 10 0,1
14.07.2020 12:00:00 15,4 10,6 5 3 14 8 NNE 1012,4 10 0,0
14.07.2020 11:00:00 14,9 10,5 9 5 18 10 N 1012,4 10 0,0
14.07.2020 10:00:00 14,5 10,9 11 6 18 10 N 1012,5 10 0,0
14.07.2020 09:00:00 13,5 11,0 11 6 18 10 N 1012,6 10 0,0
14.07.2020 08:00:00 12,5 10,9 11 6 18 10 NNW 1012,7 10 0,0
14.07.2020 07:00:00 12,1 11,0 11 6 18 10 N 1012,7 10 0,0
14.07.2020 06:00:00 11,6 11,1 8 4 18 10 N 1012,7 10 0,0
14.07.2020 05:00:00 11,3 11,0 8 4 14 8 N 1012,7 10 0,0
14.07.2020 04:00:00 10,1 9,6 8 4 11 6 NW 1012,7 10 0,0
14.07.2020 03:00:00 10,2 9,7 5 3 7 4 NW 1012,6 10 0,0
14.07.2020 02:00:00 10,0 9,4 7 4 7 4 NNW 1012,5 40 0,0
14.07.2020 01:00:00 10,3 9,4 0 0 7 4 N 1012,5 10 0,0
14.07.2020 00:00:00 11,7 10,1 5 3 7 4 ENE 1012,5 10 0,0
13.07.2020 23:00:00 12,9 10,4 5 3 7 4 E 1012,5 10 0,0
13.07.2020 22:00:00 13,2 10,0 4 2 11 6 - 1012,4 10 0,0
13.07.2020 21:00:00 13,4 10,2 8 4 14 8 E 1012,1 10 0,0
13.07.2020 20:00:00 14,1 10,9 9 5 14 8 ESE 1011,8 10 0,0
13.07.2020 19:00:00 14,4 11,4 11 6 18 10 ESE 1011,8 10 0,0
13.07.2020 18:00:00 15,1 10,9 9 5 14 8 SE 1011,8 10 0,0
13.07.2020 17:00:00 15,4 10,8 11 6 14 8 SE 1011,5 10 0,0
13.07.2020 16:00:00 15,6 10,1 9 5 14 8 SSE 1011,7 10 0,0
13.07.2020 15:00:00 16,3 10,6 11 6 14 8 SSE 1011,8 10 0,0
13.07.2020 14:00:00 15,8 11,2 8 4 14 8 ESE 1011,6 10 0,0
13.07.2020 13:00:00 14,5 12,0 5 3 14 8 NE 1011,9 10 0,0
13.07.2020 12:00:00 13,2 11,9 5 3 18 10 NE 1012,2 10 11,0
13.07.2020 11:00:00 13,0 11,9 8 4 18 10 E 1012,5 10 4,0
13.07.2020 10:00:00 13,0 12,1 9 5 18 10 ENE 1012,5 10 2,0
13.07.2020 09:00:00 13,8 11,8 11 6 22 12 ESE 1012,3 10 0,0
13.07.2020 08:00:00 13,4 12,1 9 5 22 12 E 1012,3 10 0,0
13.07.2020 07:00:00 12,6 11,3 4 2 7 4 - 1012,4 10 0,0
13.07.2020 06:00:00 11,5 10,9 0 0 4 2 N 1012,7 8 6,0
13.07.2020 05:00:00 11,7 10,8 0 0 7 4 N 1012,9 10 3,0
13.07.2020 04:00:00 11,7 10,4 4 2 4 2 E 1013,1 10 0,9
13.07.2020 03:00:00 11,9 10,6 2 1 7 4 - 1013,2 10 0,7
13.07.2020 02:00:00 12,0 10,4 5 3 14 8 S 1013,2 10 0,7
13.07.2020 01:00:00 12,5 10,4 13 7 25 14 S 1013,2 10 0,4
13.07.2020 00:00:00 13,4 11,8 15 8 25 14 SSE 1013,0 10 0,2
12.07.2020 23:00:00 13,9 11,8 13 7 18 10 SSE 1013,0 10 0,0
12.07.2020 22:00:00 13,7 11,4 9 5 14 8 ESE 1013,1 10 0,0
12.07.2020 21:00:00 14,3 11,6 11 6 18 10 SSE 1012,8 10 0,0
12.07.2020 20:00:00 15,1 11,3 11 6 14 8 SE 1012,8 10 0,0
12.07.2020 19:00:00 15,4 11,8 8 4 14 8 S 1012,8 10 0,0
12.07.2020 18:00:00 15,4 11,2 15 8 22 12 S 1012,7 10 0,0
12.07.2020 17:00:00 16,2 11,1 16 9 22 12 SSE 1012,4 10 0,0
12.07.2020 16:00:00 16,7 10,5 16 9 25 14 SSE 1012,3 10 0,0
12.07.2020 15:00:00 17,1 10,7 16 9 25 14 S 1012,1 10 0,0
12.07.2020 14:00:00 17,9 10,3 16 9 25 14 S 1012,0 10 0,0
12.07.2020 13:00:00 17,6 10,9 18 10 25 14 S 1011,6 10 0,0
12.07.2020 12:00:00 17,4 11,4 16 9 22 12 S 1011,7 10 0,0
12.07.2020 11:00:00 17,2 11,0 15 8 22 12 S 1011,6 10 0,0
12.07.2020 10:00:00 17,2 10,6 9 5 18 10 SSE 1011,5 10 0,0
12.07.2020 09:00:00 16,7 9,9 9 5 18 10 SSE 1011,4 10 0,0
12.07.2020 08:00:00 15,2 11,2 5 3 14 8 S 1011,1 10 0,0
12.07.2020 07:00:00 14,2 11,7 8 4 11 6 S 1010,8 10 0,0
12.07.2020 06:00:00 14,0 11,5 5 3 7 4 SE 1010,3 10 0,0
12.07.2020 05:00:00 13,2 10,6 0 0 4 2 N 1010,0 10 0,0
12.07.2020 04:00:00 9,9 8,8 0 0 4 2 N 1009,9 10 0,0
12.07.2020 03:00:00 10,1 9,0 0 0 4 2 N 1009,9 10 0,0
12.07.2020 02:00:00 10,6 9,5 2 1 4 2 W 1009,8 10 0,0
12.07.2020 01:00:00 12,2 10,4 2 1 7 4 - 1009,7 10 0,0
12.07.2020 00:00:00 12,9 10,4 0 0 7 4 N 1009,4 10 0,0
11.07.2020 23:00:00 13,7 10,7 8 4 11 6 W 1009,2 10 0,0
11.07.2020 22:00:00 14,8 10,8 8 4 14 8 WNW 1009,1 10 0,0
11.07.2020 21:00:00 15,2 10,6 11 6 14 8 WNW 1008,6 10 0,0
11.07.2020 20:00:00 16,7 10,1 5 3 14 8 W 1008,2 10 0,0
11.07.2020 19:00:00 16,0 9,0 9 5 14 8 W 1008,2 10 0,0
11.07.2020 18:00:00 16,7 9,9 2 1 14 8 - 1007,9 10 0,0
11.07.2020 17:00:00 15,4 10,6 13 7 18 10 NW 1008,2 10 0,0
11.07.2020 16:00:00 16,4 8,9 11 6 18 10 S 1008,0 10 0,0
11.07.2020 15:00:00 16,3 8,8 11 6 18 10 SSW 1008,1 10 0,0
11.07.2020 14:00:00 15,3 8,8 9 5 14 8 S 1008,3 10 0,0
11.07.2020 13:00:00 16,0 8,7 13 7 22 12 SSE 1008,2 10 0,0
11.07.2020 12:00:00 15,5 9,8 15 8 22 12 SSE 1008,3 10 0,0
11.07.2020 11:00:00 14,4 9,6 13 7 18 10 SE 1008,2 10 0,0
11.07.2020 10:00:00 14,0 10,0 13 7 18 10 SE 1008,2 10 0,0
11.07.2020 09:00:00 13,9 9,9 14 8 22 12 SE 1008,0 45 0,0
11.07.2020 08:00:00 13,9 9,9 15 8 18 10 SE 1008,0 10 0,0
11.07.2020 07:00:00 13,4 10,8 13 7 22 12 SE 1007,9 10 0,0
11.07.2020 06:00:00 13,1 11,0 15 8 22 12 SE 1008,0 10 0,0
11.07.2020 05:00:00 13,4 12,1 5 3 11 6 ESE 1007,7 10 0,0
11.07.2020 04:00:00 12,3 11,2 0 0 4 2 N 1007,6 10 0,0
11.07.2020 03:00:00 12,1 11,0 0 0 4 2 N 1007,4 10 0,0
11.07.2020 02:00:00 12,0 11,1 0 0 4 2 N 1007,4 10 0,0
11.07.2020 01:00:00 11,9 10,8 0 0 4 2 N 1007,2 10 0,0
11.07.2020 00:00:00 11,7 10,8 0 0 0 0 N 1007,0 10 0,0
10.07.2020 23:00:00 12,7 10,9 0 0 4 2 N 1006,9 10 0,0
10.07.2020 22:00:00 13,5 11,4 4 2 7 4 SSW 1006,7 10 0,0
10.07.2020 21:00:00 13,3 11,4 5 3 14 8 SSW 1006,5 10 0,0
10.07.2020 20:00:00 13,9 11,2 11 6 14 8 S 1006,1 10 0,0
10.07.2020 19:00:00 14,8 9,2 5 3 14 8 SE 1005,9 10 0,0
10.07.2020 18:00:00 15,3 7,8 5 3 14 8 S 1005,6 10 0,0
10.07.2020 17:00:00 14,5 8,9 9 5 14 8 - 1005,1 10 0,0
10.07.2020 16:00:00 14,5 10,1 8 4 14 8 WNW 1004,6 10 0,0
10.07.2020 15:00:00 13,2 9,1 11 6 25 14 NNW 1004,4 10 0,0
10.07.2020 14:00:00 12,9 10,1 16 9 32 18 NNW 1004,2 10 0,1
10.07.2020 13:00:00 12,6 10,8 21 11 32 18 NNW 1004,0 10 0,3
10.07.2020 12:00:00 11,7 10,4 18 10 32 18 NNW 1003,6 10 2,0
10.07.2020 11:00:00 12,5 11,2 15 8 25 14 NNW 1003,2 10 0,4
10.07.2020 10:00:00 11,9 11,3 9 5 18 10 WSW 1002,8 10 5,0
10.07.2020 09:00:00 11,8 11,2 4 2 7 4 - 1002,8 10 3,0
10.07.2020 08:00:00 12,0 10,7 5 3 14 8 W 1002,8 10 0,2
10.07.2020 07:00:00 12,2 11,4 0 0 7 4 N 1002,8 10 0,3
10.07.2020 06:00:00 11,9 11,4 2 1 7 4 - 1003,1 10 3,0
10.07.2020 05:00:00 12,1 11,5 2 1 7 4 NW 1003,1 10 1,0
10.07.2020 04:00:00 12,0 11,4 5 3 7 4 WNW 1003,3 10 0,2
10.07.2020 03:00:00 12,3 11,0 0 0 4 2 N 1003,6 10 0,0
10.07.2020 02:00:00 12,5 10,9 0 0 7 4 N 1003,7 10 0,0
10.07.2020 01:00:00 12,9 11,0 4 2 11 6 WSW 1003,9 10 0,0
10.07.2020 00:00:00 13,1 10,6 5 3 11 6 SW 1004,0 10 0,0
09.07.2020 23:00:00 13,5 10,5 8 4 11 6 SSW 1004,1 10 0,0
09.07.2020 22:00:00 13,8 10,0 8 4 11 6 SSW 1004,0 10 0,0
09.07.2020 21:00:00 14,4 11,0 9 5 14 8 SSW 1004,2 10 0,0
09.07.2020 20:00:00 14,7 9,5 11 6 22 12 SSW 1004,5 10 0,0
09.07.2020 19:00:00 14,4 10,8 13 7 22 12 S 1004,7 10 0,0
09.07.2020 18:00:00 14,6 11,4 13 7 22 12 SSW 1005,1 10 0,0
09.07.2020 17:00:00 15,3 11,3 11 6 18 10 SE 1005,1 10 0,0
09.07.2020 16:00:00 15,2 11,4 13 7 18 10 SSE 1005,0 10 0,0
09.07.2020 15:00:00 15,3 11,3 16 9 22 12 SSE 1005,1 10 0,0
09.07.2020 14:00:00 16,4 11,8 16 9 22 12 SSE 1004,9 10 0,0
09.07.2020 13:00:00 15,7 12,1 16 9 22 12 SSE 1005,1 10 0,0
09.07.2020 12:00:00 16,0 10,7 18 10 25 14 SE 1005,1 10 0,0
09.07.2020 11:00:00 15,9 11,7 21 11 25 14 SSE 1004,9 10 0,0
09.07.2020 10:00:00 16,6 11,9 15 8 22 12 SE 1004,8 10 0,0
09.07.2020 09:00:00 16,4 11,3 11 6 14 8 SE 1004,7 10 0,0
09.07.2020 08:00:00 15,6 11,0 4 2 7 4 - 1004,7 10 0,0
09.07.2020 07:00:00 14,1 11,6 0 0 7 4 N 1004,6 10 0,0
09.07.2020 06:00:00 12,3 11,4 4 2 7 4 - 1004,5 10 0,0
09.07.2020 05:00:00 11,8 10,9 2 1 7 4 NW 1004,1 10 0,0
09.07.2020 04:00:00 9,7 8,9 4 2 4 2 NW 1003,9 10 0,0
09.07.2020 03:00:00 9,7 9,2 2 1 7 4 WNW 1004,1 10 0,0
09.07.2020 02:00:00 10,0 9,5 2 1 4 2 WNW 1003,9 10 0,0
09.07.2020 01:00:00 10,8 10,0 0 0 0 0 N 1003,8 10 0,0
09.07.2020 00:00:00 11,8 10,9 0 0 4 2 N 1003,6 10 0,0
08.07.2020 23:00:00 12,6 11,5 0 0 7 4 N 1003,2 10 0,0

tt = Température de l'air
td = dewpoint
ff = Vitesse du vent
fx = gusts
dd = Direction du vent
ppp = reduced air pressure
vv = visibility
rr = Quantités de précipitations

stations d'obs. à proximité